CRRES DEB (CANISTER)

基本信息
目录编号:
21589
目录名称:
CRRES DEB (CANISTER)
国际标识:
1990-065E
轨道中心:
EARTH
物体状态:
在轨
发射日期:
1990-07-25 UTC
轨道信息
数据来源: 国际轨道数据
星历时间: 2026-03-16T09:28:04+0800
半长轴: 21982.947km
偏心率: 0.6945769
轨道倾角: 18.016°
近地点辐角: 223.965°
升交点赤经: 307.690°
平近点角: 52.982°
近地点: 335.962km
远地点: 30873.658km
周期: 540.616分钟
每日圈数: 2.66363
详细信息
发射场:
AFETR
轨道高度:
LEO
数据来源:
AOE Integration Group
参考系:
TEME
时间系统:
UTC
历元类型:
SGP4
2D轨道图
3D轨道图
轨道高度分析图
轨道倾角分析图
轨道综合分析图
查看轨道综合分析图